• In Deutschland
  • Länderverzeichnis
  • Für 7 Tage
  • Wassertemperatur
  • Satellitenkarten
  • Wetterkarte
  • Widgets
  • user-avatar
    Anmelden

    Stündliche Wetter Kürten

    Heute, 20 Oktober, Freitag

    Zeit Temperatur Niederschläge Wind Luftdruck Luftfeuchtigkeit
    00:00 +16°C° 0 mm 3 m/S 738 mmHg 71%
    01:00 +16°C° 0 mm 3 m/S 737 mmHg 69%
    02:00 +16°C° 0 mm 3 m/S 737 mmHg 68%
    03:00 +16°C° 0 mm 3 m/S 737 mmHg 67%
    04:00 +14°C° 0,8 mm 3 m/S 737 mmHg 72%
    05:00 +14°C° 0,8 mm 3 m/S 737 mmHg 76%
    06:00 +13°C° 0 mm 3 m/S 737 mmHg 81%
    07:00 +14°C° 1 mm 4 m/S 737 mmHg 82%
    08:00 +14°C° 1 mm 5 m/S 737 mmHg 82%
    09:00 +15°C° 1 mm 6 m/S 737 mmHg 82%
    10:00 +15°C° 0,2 mm 6 m/S 738 mmHg 75%
    11:00 +15°C° 0,2 mm 6 m/S 738 mmHg 69%
    12:00 +16°C° 0,2 mm 6 m/S 738 mmHg 62%
    13:00 +15°C° 0 mm 6 m/S 738 mmHg 62%
    14:00 +14°C° 0 mm 5 m/S 738 mmHg 63%
    15:00 +14°C° 0 mm 5 m/S 739 mmHg 63%
    16:00 +13°C° 0 mm 5 m/S 739 mmHg 65%
    17:00 +12°C° 0 mm 4 m/S 739 mmHg 68%
    18:00 +11°C° 0 mm 4 m/S 740 mmHg 70%
    19:00 +11°C° 0 mm 3 m/S 740 mmHg 73%
    20:00 +10°C° 0 mm 3 m/S 740 mmHg 76%
    21:00 +10°C° 0 mm 3 m/S 740 mmHg 79%
    22:00 +9°C° 0 mm 3 m/S 740 mmHg 80%
    23:00 +9°C° 0 mm 2 m/S 740 mmHg 81%

    Morgen, 21 Oktober, Samstag

    Zeit Temperatur Niederschläge Wind Luftdruck Luftfeuchtigkeit
    00:00 +9°C° 0 mm 2 m/S 740 mmHg 82%
    01:00 +9°C° 0 mm 2 m/S 740 mmHg 80%
    02:00 +10°C° 0 mm 3 m/S 740 mmHg 78%
    03:00 +10°C° 0 mm 3 m/S 740 mmHg 76%
    04:00 +10°C° 0 mm 3 m/S 739 mmHg 78%
    05:00 +10°C° 0 mm 3 m/S 739 mmHg 80%
    06:00 +10°C° 0 mm 3 m/S 739 mmHg 82%
    07:00 +11°C° 0,1 mm 4 m/S 739 mmHg 81%
    08:00 +13°C° 0,1 mm 4 m/S 739 mmHg 81%
    09:00 +14°C° 0,1 mm 4 m/S 739 mmHg 80%
    10:00 +14°C° 0,7 mm 4 m/S 739 mmHg 83%
    11:00 +14°C° 0,7 mm 4 m/S 739 mmHg 85%
    12:00 +14°C° 0,7 mm 4 m/S 739 mmHg 88%
    13:00 +14°C° 0,2 mm 4 m/S 739 mmHg 86%
    14:00 +13°C° 0,2 mm 4 m/S 739 mmHg 84%
    15:00 +13°C° 0,2 mm 4 m/S 739 mmHg 82%
    16:00 +13°C° 0 mm 4 m/S 739 mmHg 81%
    17:00 +12°C° 0 mm 4 m/S 739 mmHg 81%
    18:00 +12°C° 0 mm 4 m/S 739 mmHg 81%
    19:00 +11°C° 0,1 mm 4 m/S 739 mmHg 81%
    20:00 +11°C° 0,1 mm 4 m/S 740 mmHg 81%
    21:00 +10°C° 0,1 mm 4 m/S 740 mmHg 80%
    22:00 +10°C° 0 mm 4 m/S 740 mmHg 80%
    23:00 +10°C° 0 mm 4 m/S 740 mmHg 80%

    übermorgen, 22 Oktober, Sonntag

    Zeit Temperatur Niederschläge Wind Luftdruck Luftfeuchtigkeit
    00:00 +8°C° 0 mm 4 m/S 740 mmHg 80%
    01:00 +8°C° 0 mm 4 m/S 740 mmHg 80%
    02:00 +8°C° 0 mm 5 m/S 739 mmHg 80%
    03:00 +7°C° 0 mm 5 m/S 739 mmHg 80%
    04:00 +7°C° 0 mm 5 m/S 739 mmHg 80%
    05:00 +7°C° 0 mm 5 m/S 739 mmHg 79%
    06:00 +7°C° 0 mm 5 m/S 739 mmHg 78%
    07:00 +8°C° 0,1 mm 5 m/S 739 mmHg 77%
    08:00 +8°C° 0,1 mm 5 m/S 739 mmHg 76%
    09:00 +8°C° 0,1 mm 6 m/S 739 mmHg 75%
    10:00 +9°C° 0,1 mm 6 m/S 739 mmHg 75%
    11:00 +9°C° 0,1 mm 6 m/S 739 mmHg 75%
    12:00 +9°C° 0,1 mm 6 m/S 739 mmHg 74%
    13:00 +9°C° 0,2 mm 6 m/S 739 mmHg 76%
    14:00 +9°C° 0,2 mm 5 m/S 739 mmHg 77%
    15:00 +9°C° 0,2 mm 5 m/S 739 mmHg 78%
    16:00 +8°C° 0,1 mm 5 m/S 739 mmHg 79%
    17:00 +8°C° 0,1 mm 5 m/S 739 mmHg 80%
    18:00 +8°C° 0,1 mm 4 m/S 740 mmHg 81%
    19:00 +8°C° 0,1 mm 4 m/S 740 mmHg 82%
    20:00 +7°C° 0,1 mm 4 m/S 740 mmHg 83%
    21:00 +7°C° 0,1 mm 4 m/S 740 mmHg 83%
    22:00 +7°C° 0,6 mm 4 m/S 740 mmHg 85%
    23:00 +7°C° 0,6 mm 4 m/S 740 mmHg 86%

    23 Oktober, Montag

    Zeit Temperatur Niederschläge Wind Luftdruck Luftfeuchtigkeit
    00:00 +7°C° 0,6 mm 5 m/S 740 mmHg 87%
    01:00 +7°C° 0,7 mm 5 m/S 740 mmHg 88%
    02:00 +7°C° 0,7 mm 5 m/S 740 mmHg 88%
    03:00 +8°C° 0,7 mm 5 m/S 740 mmHg 89%
    04:00 +8°C° 0,4 mm 5 m/S 740 mmHg 88%
    05:00 +8°C° 0,4 mm 5 m/S 740 mmHg 88%
    06:00 +8°C° 0,4 mm 5 m/S 740 mmHg 87%
    07:00 +8°C° 0 mm 5 m/S 740 mmHg 85%
    08:00 +8°C° 0 mm 5 m/S 741 mmHg 84%
    09:00 +9°C° 0 mm 5 m/S 741 mmHg 83%
    10:00 +9°C° 0,1 mm 5 m/S 741 mmHg 81%
    11:00 +11°C° 0,1 mm 4 m/S 741 mmHg 80%
    12:00 +11°C° 0,1 mm 4 m/S 742 mmHg 79%
    13:00 +11°C° 0,1 mm 4 m/S 742 mmHg 81%
    14:00 +11°C° 0,1 mm 3 m/S 742 mmHg 82%
    15:00 +12°C° 0,1 mm 3 m/S 742 mmHg 83%
    16:00 +11°C° 0,1 mm 3 m/S 742 mmHg 86%
    17:00 +12°C° 0,1 mm 2 m/S 742 mmHg 89%
    18:00 +10°C° 0,1 mm 2 m/S 742 mmHg 92%
    19:00 +10°C° 0,1 mm 2 m/S 743 mmHg 92%
    20:00 +11°C° 0,1 mm 1 m/S 743 mmHg 93%
    21:00 +11°C° 0,1 mm 1 m/S 743 mmHg 94%
    22:00 +11°C° 0 mm 1 m/S 743 mmHg 94%
    23:00 +10°C° 0 mm 1 m/S 744 mmHg 94%

    24 Oktober, Dienstag

    Zeit Temperatur Niederschläge Wind Luftdruck Luftfeuchtigkeit
    00:00 +10°C° 0 mm 1 m/S 744 mmHg 94%
    01:00 +10°C° 0 mm 1 m/S 744 mmHg 94%
    02:00 +10°C° 0 mm 1 m/S 744 mmHg 94%
    03:00 +10°C° 0 mm 1 m/S 744 mmHg 94%
    04:00 +10°C° 0 mm 1 m/S 745 mmHg 94%
    05:00 +10°C° 0 mm 1 m/S 745 mmHg 94%
    06:00 +10°C° 0 mm 1 m/S 745 mmHg 94%
    07:00 +10°C° 0 mm 2 m/S 746 mmHg 91%
    08:00 +12°C° 0 mm 2 m/S 746 mmHg 89%
    09:00 +13°C° 0 mm 2 m/S 746 mmHg 87%
    10:00 +14°C° 0 mm 2 m/S 746 mmHg 84%
    11:00 +15°C° 0 mm 2 m/S 746 mmHg 81%
    12:00 +16°C° 0 mm 2 m/S 746 mmHg 78%
    13:00 +17°C° 0 mm 2 m/S 746 mmHg 79%
    14:00 +17°C° 0 mm 2 m/S 746 mmHg 79%
    15:00 +17°C° 0 mm 2 m/S 746 mmHg 80%
    16:00 +16°C° 0 mm 2 m/S 746 mmHg 83%
    17:00 +15°C° 0 mm 2 m/S 747 mmHg 87%
    18:00 +14°C° 0 mm 2 m/S 747 mmHg 90%
    19:00 +14°C° 0 mm 2 m/S 747 mmHg 91%
    20:00 +13°C° 0 mm 2 m/S 747 mmHg 91%
    21:00 +13°C° 0 mm 2 m/S 747 mmHg 92%
    22:00 +13°C° 0 mm 2 m/S 747 mmHg 92%
    23:00 +13°C° 0 mm 2 m/S 747 mmHg 93%

    25 Oktober, Mittwoch

    Zeit Temperatur Niederschläge Wind Luftdruck Luftfeuchtigkeit
    00:00 +12°C° 0 mm 2 m/S 747 mmHg 93%
    01:00 +12°C° 0 mm 2 m/S 747 mmHg 93%
    02:00 +12°C° 0 mm 2 m/S 747 mmHg 93%
    03:00 +12°C° 0 mm 2 m/S 747 mmHg 93%
    04:00 +12°C° 0 mm 2 m/S 747 mmHg 93%
    05:00 +12°C° 0 mm 2 m/S 748 mmHg 93%
    06:00 +12°C° 0 mm 2 m/S 748 mmHg 93%
    07:00 +13°C° 0 mm 2 m/S 748 mmHg 90%
    08:00 +14°C° 0 mm 2 m/S 748 mmHg 87%
    09:00 +15°C° 0 mm 2 m/S 748 mmHg 85%
    10:00 +16°C° 0 mm 2 m/S 748 mmHg 80%
    11:00 +17°C° 0 mm 2 m/S 748 mmHg 75%
    12:00 +18°C° 0 mm 2 m/S 748 mmHg 71%
    13:00 +18°C° 0 mm 2 m/S 748 mmHg 71%
    14:00 +18°C° 0 mm 2 m/S 748 mmHg 72%
    15:00 +18°C° 0 mm 2 m/S 747 mmHg 72%
    16:00 +17°C° 0 mm 2 m/S 747 mmHg 76%
    17:00 +15°C° 0 mm 2 m/S 748 mmHg 81%
    18:00 +14°C° 0 mm 2 m/S 748 mmHg 85%
    19:00 +13°C° 0 mm 2 m/S 748 mmHg 84%
    20:00 +13°C° 0 mm 2 m/S 748 mmHg 84%
    21:00 +13°C° 0 mm 2 m/S 748 mmHg 83%
    22:00 +12°C° 0 mm 2 m/S 748 mmHg 82%
    23:00 +12°C° 0 mm 2 m/S 748 mmHg 81%
    Mehr zeigen